When you browse on this site, cookies collect data to enhance your experience and personalize the content and advertising you see.
Visit our Privacy Policy to learn more. By continuing to use the site, you agree to this use of cookies and data.
  • în România
  • Lista ţărilor
  • Pe 7 zile
  • Temperatura apei
  • Hartă satelitară
  • Meteo pe hartă
  • Widget-uri
  • user-avatar
    Intrare

    Meteo pe oră la Klokovo

    Astăzi, 19 Aprilie, Vineri

    Timp Temperatura Precipitaţii Vânt Presiune Umiditate
    00:00 +3°C° 0 mm 2 m/s 759 mmHg 88%
    01:00 +2°C° 0 mm 2 m/s 759 mmHg 89%
    02:00 +2°C° 0 mm 1 m/s 759 mmHg 88%
    03:00 +2°C° 0 mm 1 m/s 759 mmHg 88%
    04:00 +2°C° 0 mm 1 m/s 760 mmHg 89%
    05:00 +1°C° 0 mm 1 m/s 760 mmHg 89%
    06:00 +3°C° 0 mm 1 m/s 760 mmHg 79%
    07:00 +5°C° 0 mm 1 m/s 760 mmHg 70%
    08:00 +7°C° 0 mm 1 m/s 760 mmHg 60%
    09:00 +8°C° 0 mm 1 m/s 760 mmHg 54%
    10:00 +10°C° 0 mm 1 m/s 760 mmHg 48%
    11:00 +11°C° 0 mm 1 m/s 759 mmHg 42%
    12:00 +12°C° 0 mm 1 m/s 759 mmHg 40%
    13:00 +12°C° 0 mm 1 m/s 759 mmHg 38%
    14:00 +13°C° 0 mm 1 m/s 758 mmHg 37%
    15:00 +13°C° 0 mm 1 m/s 758 mmHg 38%
    16:00 +12°C° 0 mm 1 m/s 757 mmHg 39%
    17:00 +12°C° 0 mm 1 m/s 757 mmHg 39%
    18:00 +11°C° 0 mm 1 m/s 757 mmHg 44%
    19:00 +9°C° 0 mm 1 m/s 756 mmHg 49%
    20:00 +7°C° 0 mm 2 m/s 756 mmHg 54%
    21:00 +6°C° 0 mm 2 m/s 756 mmHg 57%
    22:00 +6°C° 0 mm 2 m/s 756 mmHg 59%
    23:00 +6°C° 0 mm 2 m/s 755 mmHg 62%

    Mâine, 20 Aprilie, Sâmbătă

    Timp Temperatura Precipitaţii Vânt Presiune Umiditate
    00:00 +6°C° 0.2 mm 2 m/s 755 mmHg 66%
    01:00 +6°C° 0.2 mm 2 m/s 755 mmHg 70%
    02:00 +5°C° 0.2 mm 2 m/s 754 mmHg 74%
    03:00 +5°C° 0.4 mm 2 m/s 754 mmHg 79%
    04:00 +5°C° 0.4 mm 2 m/s 754 mmHg 84%
    05:00 +5°C° 0.4 mm 2 m/s 754 mmHg 89%
    06:00 +5°C° 0.2 mm 2 m/s 754 mmHg 87%
    07:00 +6°C° 0.2 mm 2 m/s 754 mmHg 84%
    08:00 +7°C° 0.2 mm 3 m/s 754 mmHg 82%
    09:00 +8°C° 0.1 mm 2 m/s 754 mmHg 75%
    10:00 +9°C° 0.1 mm 2 m/s 754 mmHg 68%
    11:00 +10°C° 0.1 mm 2 m/s 754 mmHg 61%
    12:00 +10°C° 0.1 mm 2 m/s 754 mmHg 58%
    13:00 +10°C° 0.1 mm 2 m/s 754 mmHg 56%
    14:00 +12°C° 0.1 mm 2 m/s 754 mmHg 53%
    15:00 +10°C° 0.1 mm 2 m/s 754 mmHg 54%
    16:00 +10°C° 0.1 mm 2 m/s 754 mmHg 56%
    17:00 +10°C° 0.1 mm 2 m/s 754 mmHg 58%
    18:00 +8°C° 0.1 mm 2 m/s 754 mmHg 65%
    19:00 +7°C° 0.1 mm 2 m/s 754 mmHg 73%
    20:00 +5°C° 0.1 mm 2 m/s 755 mmHg 81%
    21:00 +5°C° 0 mm 2 m/s 755 mmHg 84%
    22:00 +4°C° 0 mm 2 m/s 755 mmHg 88%
    23:00 +3°C° 0 mm 2 m/s 755 mmHg 92%

    Poimâine, 21 Aprilie, Duminică

    Timp Temperatura Precipitaţii Vânt Presiune Umiditate
    00:00 +4°C° 0 mm 1 m/s 755 mmHg 93%
    01:00 +4°C° 0 mm 1 m/s 756 mmHg 94%
    02:00 +3°C° 0 mm 1 m/s 756 mmHg 95%
    03:00 +3°C° 0 mm 1 m/s 756 mmHg 95%
    04:00 +3°C° 0 mm 1 m/s 756 mmHg 95%
    05:00 +3°C° 0 mm 1 m/s 756 mmHg 95%
    06:00 +4°C° 0 mm 1 m/s 756 mmHg 89%
    07:00 +5°C° 0 mm 2 m/s 757 mmHg 83%
    08:00 +7°C° 0 mm 2 m/s 757 mmHg 76%
    09:00 +8°C° 0 mm 2 m/s 757 mmHg 70%
    10:00 +10°C° 0 mm 2 m/s 757 mmHg 64%
    11:00 +13°C° 0 mm 2 m/s 757 mmHg 58%
    12:00 +13°C° 0 mm 1 m/s 757 mmHg 56%
    13:00 +14°C° 0 mm 1 m/s 757 mmHg 55%
    14:00 +14°C° 0 mm 1 m/s 757 mmHg 53%
    15:00 +14°C° 0 mm 1 m/s 757 mmHg 54%
    16:00 +13°C° 0 mm 0 m/s 757 mmHg 54%
    17:00 +13°C° 0 mm 0 m/s 756 mmHg 54%
    18:00 +11°C° 0 mm 0 m/s 757 mmHg 61%
    19:00 +9°C° 0 mm 0 m/s 757 mmHg 68%
    20:00 +8°C° 0 mm 0 m/s 757 mmHg 75%
    21:00 +7°C° 0 mm 0 m/s 757 mmHg 77%
    22:00 +7°C° 0 mm 0 m/s 757 mmHg 79%
    23:00 +6°C° 0 mm 0 m/s 757 mmHg 82%

    22 Aprilie, Luni

    Timp Temperatura Precipitaţii Vânt Presiune Umiditate
    00:00 +6°C° 0 mm 0 m/s 758 mmHg 83%
    01:00 +6°C° 0 mm 0 m/s 758 mmHg 85%
    02:00 +5°C° 0 mm 0 m/s 758 mmHg 86%
    03:00 +5°C° 0 mm 0 m/s 758 mmHg 87%
    04:00 +6°C° 0 mm 1 m/s 758 mmHg 87%
    05:00 +6°C° 0 mm 1 m/s 758 mmHg 88%
    06:00 +8°C° 0 mm 1 m/s 758 mmHg 79%
    07:00 +10°C° 0 mm 1 m/s 758 mmHg 71%
    08:00 +12°C° 0 mm 1 m/s 759 mmHg 63%
    09:00 +13°C° 0 mm 1 m/s 758 mmHg 55%
    10:00 +15°C° 0 mm 1 m/s 758 mmHg 47%
    11:00 +16°C° 0 mm 1 m/s 758 mmHg 39%
    12:00 +16°C° 0 mm 2 m/s 758 mmHg 38%
    13:00 +17°C° 0 mm 2 m/s 758 mmHg 36%
    14:00 +17°C° 0 mm 2 m/s 757 mmHg 35%
    15:00 +17°C° 0 mm 2 m/s 757 mmHg 37%
    16:00 +18°C° 0 mm 1 m/s 757 mmHg 40%
    17:00 +18°C° 0 mm 1 m/s 757 mmHg 43%
    18:00 +15°C° 0 mm 1 m/s 757 mmHg 49%
    19:00 +13°C° 0 mm 1 m/s 757 mmHg 54%
    20:00 +11°C° 0 mm 1 m/s 757 mmHg 60%
    21:00 +10°C° 0 mm 1 m/s 757 mmHg 63%
    22:00 +10°C° 0 mm 1 m/s 758 mmHg 65%
    23:00 +9°C° 0 mm 1 m/s 758 mmHg 68%

    23 Aprilie, Marţi

    Timp Temperatura Precipitaţii Vânt Presiune Umiditate
    00:00 +9°C° 0 mm 1 m/s 758 mmHg 69%
    01:00 +8°C° 0 mm 1 m/s 758 mmHg 70%
    02:00 +8°C° 0 mm 1 m/s 758 mmHg 71%
    03:00 +8°C° 0 mm 1 m/s 759 mmHg 71%
    04:00 +6°C° 0 mm 2 m/s 759 mmHg 72%
    05:00 +6°C° 0 mm 2 m/s 759 mmHg 72%
    06:00 +8°C° 0 mm 2 m/s 759 mmHg 68%
    07:00 +10°C° 0 mm 2 m/s 759 mmHg 63%
    08:00 +13°C° 0 mm 2 m/s 759 mmHg 58%
    09:00 +15°C° 0 mm 2 m/s 759 mmHg 53%
    10:00 +16°C° 0 mm 3 m/s 759 mmHg 47%
    11:00 +18°C° 0 mm 3 m/s 759 mmHg 41%
    12:00 +18°C° 0 mm 3 m/s 759 mmHg 40%
    13:00 +19°C° 0 mm 3 m/s 759 mmHg 38%
    14:00 +19°C° 0 mm 3 m/s 758 mmHg 36%
    15:00 +19°C° 0 mm 3 m/s 758 mmHg 39%
    16:00 +18°C° 0 mm 2 m/s 758 mmHg 41%
    17:00 +18°C° 0 mm 2 m/s 758 mmHg 43%
    18:00 +16°C° 0 mm 2 m/s 758 mmHg 48%
    19:00 +14°C° 0 mm 2 m/s 758 mmHg 54%
    20:00 +12°C° 0 mm 1 m/s 758 mmHg 59%
    21:00 +11°C° 0 mm 1 m/s 759 mmHg 60%
    22:00 +11°C° 0 mm 1 m/s 759 mmHg 62%
    23:00 +10°C° 0 mm 1 m/s 759 mmHg 63%

    24 Aprilie, Miercuri

    Timp Temperatura Precipitaţii Vânt Presiune Umiditate
    00:00 +10°C° 0 mm 1 m/s 759 mmHg 65%
    01:00 +9°C° 0 mm 1 m/s 759 mmHg 66%
    02:00 +9°C° 0 mm 1 m/s 760 mmHg 67%
    03:00 +9°C° 0 mm 1 m/s 760 mmHg 68%
    04:00 +8°C° 0 mm 1 m/s 760 mmHg 69%
    05:00 +8°C° 0 mm 1 m/s 760 mmHg 70%
    06:00 +10°C° 0 mm 1 m/s 760 mmHg 64%
    07:00 +13°C° 0 mm 1 m/s 761 mmHg 57%
    08:00 +15°C° 0 mm 1 m/s 761 mmHg 51%
    09:00 +16°C° 0 mm 1 m/s 760 mmHg 46%
    10:00 +18°C° 0 mm 2 m/s 760 mmHg 41%
    11:00 +19°C° 0 mm 2 m/s 760 mmHg 36%
    12:00 +19°C° 0 mm 2 m/s 760 mmHg 34%
    13:00 +20°C° 0 mm 2 m/s 760 mmHg 33%
    14:00 +20°C° 0 mm 2 m/s 760 mmHg 32%
    15:00 +21°C° 0 mm 1 m/s 759 mmHg 34%
    16:00 +21°C° 0 mm 1 m/s 759 mmHg 36%
    17:00 +21°C° 0 mm 1 m/s 759 mmHg 39%
    18:00 +16°C° 0 mm 0 m/s 759 mmHg 43%
    19:00 +14°C° 0 mm 0 m/s 759 mmHg 47%
    20:00 +12°C° 0 mm 0 m/s 759 mmHg 52%
    21:00 +12°C° 0 mm 0 m/s 759 mmHg 54%
    22:00 +11°C° 0 mm 0 m/s 759 mmHg 56%
    23:00 +11°C° 0 mm 0 m/s 759 mmHg 57%
    Arată mai mult